Hourly Data Report for October 01, 2017

All times are specified in Local Standard Time (LST). Add 1 hour to adjust for Daylight Saving Time where and when it is observed.

PETAWAWA AWOS 2
ONTARIO

45°57'00.000" N
77°19'00.000" W
130.10 m
6106396
71625
YWA

Download Data

Hourly Data (October 2017)
Hourly Data Report for October 1, 2017
Temp Definition
°C
Dew Point Temp Definition
°C
Rel Hum Definition
%
Wind Dir Definition
10's deg

Wind Spd Definition
km/h
Visibility Definition
km
Stn Press Definition
kPa
Hmdx Definition


Wind Chill Definition


Weather Definition


TIME
00:00 1.4 0.8 96 28 4 14.5 101.27     LegendNANA
01:00 1.4 0.7 95   0 14.5 101.28     LegendNANA
02:00 1.3 0.8 96   0 14.5 101.27     LegendNANA
03:00 1.5 1.0 96 30 4 14.5 101.28     LegendNANA
04:00 -0.6 -1.2 96   0 14.5 101.28     LegendNANA
05:00 -0.3 -0.8 96 27 4 14.5 101.31   -2 LegendNANA
06:00 -0.5 -0.9 97   0 14.5 101.32     LegendNANA
07:00 0.3 -0.2 96   0 14.5 101.32     LegendNANA
08:00 4.8 3.9 94   0 14.5 101.34     LegendNANA
09:00 8.4 5.5 82   0 14.5 101.35     LegendNANA
10:00 10.3 7.2 81 6 9 14.5 101.30     LegendNANA
11:00 12.1 8.4 78 2 7 14.5 101.23     LegendNANA
12:00 14.3 8.0 66 7 7 14.5 101.17     LegendNANA
13:00 15.3 8.0 62 6 9 14.5 101.09     LegendNANA
14:00 17.0 8.5 57   0 14.5 101.03     LegendNANA
15:00 18.6 6.6 46 22 9 14.5 100.96     LegendNANA
16:00 18.1 4.5 41 31 9 14.5 100.90     LegendNANA
17:00 17.6 5.2 44 28 7 14.5 100.91     LegendNANA
18:00 12.1 8.1 76 27 4 14.5 100.92     LegendNANA
19:00 10.7 7.4 80 33 7 14.5 100.96     LegendNANA
20:00 7.4 6.1 91 24 4 14.5 101.00     LegendNANA
21:00 6.4 5.5 94 26 6 14.5 101.03     LegendNANA
22:00 5.6 5.1 97   0 14.5 101.06     LegendNANA
23:00 4.6 3.9 95 27 4 14.5 101.13     LegendNANA

Notes on Data Quality.

Legend

  • E = Estimated
  • M = Missing
  • NA = Not Available
  • ‡ = Partner data that is not subject to review by the National Climate Archives
Date modified: